Waseca, MN

7:34 AM CST on February 24, 2017 (GMT -0600)
Waseca Municipal

Weather History for KACQ - December, 2011

Change the Weather History Date:

Wednesday, December 14, 2011

  Actual Average Record
Temperature  
Mean Temperature 37 °F -  
Max Temperature 39 °F 26 °F 53 °F (2002)
Min Temperature 35 °F 9 °F -30 °F (1917)
Degree Days  
Heating Degree Days 28    
Moisture  
Dew Point 35 °F    
Average Humidity 90    
Maximum Humidity 93    
Minimum Humidity 87    
Precipitation  
Precipitation 0.00 in - - ()
Sea Level Pressure  
Sea Level Pressure 29.82 in    
Wind  
Wind Speed 7 mph (SE)    
Max Wind Speed 12 mph    
Max Gust Speed -    
Visibility 3 miles    
Events Rain    
Averages and records for this station are not official NWS values.
T = Trace of Precipitation, MM = Missing Value Source: NWS Daily Summary

Daily Weather History Graph

Daily Weather History Graph

Search for Another Location

Airport or City:

Trip Planner

Search our weather history database for the weather conditions in past years. The results will help you decide how hot, cold, wet, or windy it might be!

Date:

Astronomy

Dec. 14, 2011 Rise Set
Actual Time 7:41 AM CST 4:36 PM CST
Civil Twilight 7:08 AM CST 5:09 PM CST
Nautical Twilight 6:31 AM CST 5:45 PM CST
Astronomical Twilight 5:56 AM CST 6:20 PM CST
Moon 9:03 PM CST (12/14) 10:20 AM CST (12/14)
Length of Visible Light 10h 01m
Length of Day
8h 54m
Waning Gibbous, 83% of the Moon is Illuminated
Dec 14
Waning Gibbous
Dec 17
Last Quarter
Dec 24
New
Jan 1
First Quarter
Jan 9
Full

Hourly Weather History & Observations

Time (CST) Temp. Windchill Dew Point Humidity Pressure Visibility Wind Dir Wind Speed Gust Speed Precip Events Conditions
12:16 AM 35.6 °F 28.0 °F 33.8 °F 93% 30.05 in 1.5 mi ESE 10.4 mph - N/A Rain Light Rain
12:37 AM 35.6 °F 29.9 °F 33.8 °F 93% 30.07 in 1.5 mi ESE 6.9 mph - N/A   Overcast
12:57 AM 35.6 °F 29.2 °F 33.8 °F 93% 30.05 in 1.2 mi ESE 8.1 mph - N/A   Light Drizzle
1:16 AM 35.6 °F 27.5 °F 33.8 °F 93% 30.03 in 1.2 mi ESE 11.5 mph - N/A Rain Light Rain
1:36 AM 35.6 °F 27.5 °F 33.8 °F 93% 30.02 in 1.8 mi SE 11.5 mph - N/A   Overcast
1:56 AM 35.6 °F 29.2 °F 33.8 °F 93% 30.01 in 1.8 mi ESE 8.1 mph - N/A   Overcast
2:16 AM 35.6 °F 28.6 °F 33.8 °F 93% 30.01 in 1.8 mi ESE 9.2 mph - N/A   Overcast
2:36 AM 35.6 °F 29.9 °F 33.8 °F 93% 30.00 in 2.0 mi ESE 6.9 mph - N/A   Overcast
2:56 AM 35.6 °F 29.2 °F 33.8 °F 93% 30.00 in 2.0 mi ESE 8.1 mph - N/A   Overcast
3:17 AM 35.6 °F 29.2 °F 33.8 °F 93% 29.98 in 2.0 mi ESE 8.1 mph - N/A   Overcast
3:36 AM 35.6 °F 29.2 °F 33.8 °F 93% 29.97 in 1.8 mi ESE 8.1 mph - N/A   Overcast
3:57 AM 35.6 °F 27.5 °F 33.8 °F 93% 29.96 in 0.8 mi SE 11.5 mph - N/A   Light Drizzle
4:16 AM 35.6 °F 29.2 °F 33.8 °F 93% 29.96 in 0.8 mi SSE 8.1 mph - N/A Rain Rain
4:37 AM 35.6 °F 29.2 °F 33.8 °F 93% 29.96 in 1.5 mi SSE 8.1 mph - N/A Rain Light Rain
4:56 AM 35.6 °F 28.6 °F 33.8 °F 93% 29.94 in 1.5 mi SE 9.2 mph - N/A Rain Light Rain
5:17 AM 35.6 °F 29.2 °F 33.8 °F 93% 29.91 in 0.8 mi SE 8.1 mph - N/A Rain Light Rain
5:37 AM 35.6 °F 29.2 °F 33.8 °F 93% 29.93 in 1.0 mi SE 8.1 mph - N/A Rain Light Rain
5:56 AM 35.6 °F 29.9 °F 33.8 °F 93% 29.93 in 0.8 mi SSE 6.9 mph - N/A Rain Light Rain
6:16 AM 35.6 °F 29.9 °F 33.8 °F 93% 29.92 in 1.0 mi SE 6.9 mph - N/A Rain Light Rain
6:37 AM 35.6 °F 29.9 °F 33.8 °F 93% 29.91 in 2.0 mi SE 6.9 mph - N/A   Drizzle
6:56 AM 35.6 °F 29.2 °F 33.8 °F 93% 29.90 in 1.5 mi SE 8.1 mph - N/A   Light Drizzle
7:16 AM 35.6 °F 30.7 °F 33.8 °F 93% 29.89 in 1.2 mi SE 5.8 mph - N/A Rain Light Rain
7:36 AM 35.6 °F 29.9 °F 33.8 °F 93% 29.88 in 1.5 mi SE 6.9 mph - N/A   Drizzle
7:57 AM 35.6 °F 29.9 °F 33.8 °F 93% 29.88 in 1.2 mi SE 6.9 mph - N/A   Overcast
8:16 AM 35.6 °F 30.7 °F 33.8 °F 93% 29.86 in 0.8 mi SE 5.8 mph - N/A Rain Light Rain
8:36 AM 35.6 °F 30.7 °F 33.8 °F 93% 29.85 in 1.0 mi ESE 5.8 mph - N/A   Overcast
9:16 AM 35.6 °F 29.2 °F 33.8 °F 93% 29.85 in 0.8 mi SE 8.1 mph - N/A   Overcast
9:36 AM 35.6 °F 28.0 °F 33.8 °F 93% 29.84 in 0.8 mi SE 10.4 mph - N/A   Overcast
9:56 AM 37.4 °F 32.1 °F 33.8 °F 87% 29.84 in 2.0 mi SE 6.9 mph - N/A   Overcast
10:16 AM 37.4 °F 32.8 °F 33.8 °F 87% 29.84 in 4.0 mi SE 5.8 mph - N/A   Light Drizzle
10:36 AM 39.2 °F 33.6 °F 35.6 °F 87% 29.83 in 5.0 mi SE 8.1 mph - N/A   Overcast
10:57 AM 39.2 °F 35.9 °F 35.6 °F 87% 29.82 in 4.0 mi SSE 4.6 mph - N/A   Drizzle
11:17 AM 39.2 °F 35.9 °F 35.6 °F 87% 29.80 in 3.0 mi ESE 4.6 mph - N/A Rain Rain
11:36 AM 39.2 °F 35.9 °F 35.6 °F 87% 29.79 in 4.0 mi SSE 4.6 mph - N/A Rain Light Rain
11:57 AM 39.2 °F 35.0 °F 35.6 °F 87% 29.78 in 3.0 mi SE 5.8 mph - N/A Rain Rain
12:16 PM 39.2 °F 34.2 °F 35.6 °F 87% 29.76 in 4.0 mi SE 6.9 mph - N/A Rain Light Rain
12:37 PM 39.2 °F 37.0 °F 35.6 °F 87% 29.74 in 2.5 mi SE 3.5 mph - N/A Rain Rain
12:56 PM 39.2 °F 35.9 °F 35.6 °F 87% 29.73 in 2.0 mi SE 4.6 mph - N/A Rain Light Rain
1:16 PM 39.2 °F 35.9 °F 35.6 °F 87% 29.71 in 4.0 mi SE 4.6 mph - N/A Rain Rain
1:37 PM 39.2 °F - 35.6 °F 87% 29.71 in 3.0 mi Calm Calm - N/A   Drizzle
1:57 PM 39.2 °F - 35.6 °F 87% 29.70 in 1.5 mi Calm Calm - N/A Rain Light Rain
2:16 PM 39.2 °F - 35.6 °F 87% 29.69 in 2.0 mi Calm Calm - N/A Rain Rain
2:36 PM 39.2 °F - 35.6 °F 87% 29.70 in 0.8 mi Calm Calm - N/A Rain Rain
3:16 PM 39.2 °F 35.0 °F 35.6 °F 87% 29.67 in 2.5 mi East 5.8 mph - N/A Rain Rain
3:37 PM 39.2 °F 35.9 °F 35.6 °F 87% 29.66 in 5.0 mi East 4.6 mph - N/A Rain Light Rain
3:56 PM 39.2 °F 35.0 °F 35.6 °F 87% 29.66 in 10.0 mi East 5.8 mph - N/A Rain Light Rain
4:16 PM 39.2 °F 35.0 °F 35.6 °F 87% 29.67 in 5.0 mi ESE 5.8 mph - N/A Rain Rain
4:37 PM 39.2 °F 37.0 °F 35.6 °F 87% 29.66 in 4.0 mi East 3.5 mph - N/A Rain Light Rain
4:57 PM 39.2 °F 37.0 °F 35.6 °F 87% 29.64 in 7.0 mi NE 3.5 mph - N/A Rain Light Rain
5:17 PM 39.2 °F 37.0 °F 35.6 °F 87% 29.65 in 10.0 mi SSE 3.5 mph - N/A Rain Light Rain
5:36 PM 39.2 °F - 35.6 °F 87% 29.65 in 7.0 mi Calm Calm - N/A Rain Light Rain
5:57 PM 39.2 °F - 35.6 °F 87% 29.65 in 4.0 mi Calm Calm - N/A Rain Light Rain
6:17 PM 39.2 °F - 35.6 °F 87% 29.65 in 3.0 mi Calm Calm - N/A   Drizzle
6:36 PM 39.2 °F - 35.6 °F 87% 29.65 in 3.0 mi Calm Calm - N/A   Overcast
6:57 PM 39.2 °F 37.0 °F 35.6 °F 87% 29.64 in 3.0 mi West 3.5 mph - N/A   Overcast
7:17 PM 39.2 °F 35.9 °F 35.6 °F 87% 29.65 in 2.5 mi West 4.6 mph - N/A   Overcast
7:37 PM 39.2 °F 35.9 °F 35.6 °F 87% 29.65 in 2.5 mi West 4.6 mph - N/A   Overcast
7:56 PM 39.2 °F 34.2 °F 35.6 °F 87% 29.65 in 4.0 mi West 6.9 mph - N/A Rain Light Rain
8:16 PM 39.2 °F 33.0 °F 35.6 °F 87% 29.65 in 5.0 mi West 9.2 mph - N/A   Light Drizzle
8:37 PM 39.2 °F 33.0 °F 35.6 °F 87% 29.65 in 5.0 mi West 9.2 mph - N/A   Light Drizzle
8:57 PM 39.2 °F 32.5 °F 35.6 °F 87% 29.65 in 7.0 mi West 10.4 mph - N/A Rain Light Rain
9:16 PM 39.2 °F 32.5 °F 35.6 °F 87% 29.65 in 5.0 mi West 10.4 mph 18.4 mph N/A   Overcast
9:37 PM 39.2 °F 31.2 °F 35.6 °F 87% 29.65 in 4.0 mi West 13.8 mph - N/A   Overcast
9:56 PM 39.2 °F 31.6 °F 35.6 °F 87% 29.65 in 2.5 mi WNW 12.7 mph - N/A   Overcast
10:16 PM 39.2 °F 31.2 °F 35.6 °F 87% 29.66 in 3.0 mi WNW 13.8 mph - N/A   Overcast
10:36 PM 37.4 °F 29.8 °F 35.6 °F 93% 29.66 in 5.0 mi WNW 11.5 mph - N/A   Overcast
10:56 PM 37.4 °F 29.3 °F 33.8 °F 87% 29.67 in 5.0 mi West 12.7 mph - N/A   Overcast
11:17 PM 37.4 °F 28.2 °F 33.8 °F 87% 29.68 in 4.0 mi West 16.1 mph - N/A   Overcast
11:36 PM 37.4 °F 27.8 °F 33.8 °F 87% 29.69 in 10.0 mi West 17.3 mph - N/A   Overcast
11:56 PM 37.4 °F 28.5 °F 33.8 °F 87% 29.69 in 2.0 mi WNW 15.0 mph 18.4 mph N/A   Overcast